Time,TemperatureF,DewpointF,PressureIn,WindDirection,WindDirectionDegrees,WindSpeedMPH,WindSpeedGustMPH,Humidity,HourlyPrecipIn,Conditions,Clouds,dailyrainin,SoftwareType,DateUTC
2013-08-23 00:05:00,67.7,62.3,29.73,South,175,4.0,5.0,83,0.00,,,0.00,Wunderground v.1.15,2013-08-23 04:05:00,
2013-08-23 00:10:00,67.6,62.3,29.73,South,190,4.0,4.0,83,0.00,,,0.00,Wunderground v.1.15,2013-08-23 04:10:00,
2013-08-23 00:15:00,67.5,61.8,29.74,SSW,195,3.0,4.0,82,0.00,,,0.00,Wunderground v.1.15,2013-08-23 04:15:00,
2013-08-23 00:20:00,67.5,61.8,29.74,South,179,3.0,6.0,82,0.00,,,0.00,Wunderground v.1.15,2013-08-23 04:20:00,
2013-08-23 00:25:00,67.4,61.4,29.74,SSW,194,3.0,6.0,81,0.00,,,0.00,Wunderground v.1.15,2013-08-23 04:25:00,
2013-08-23 00:30:00,67.4,61.4,29.74,SSW,199,2.0,2.0,81,0.00,,,0.00,Wunderground v.1.15,2013-08-23 04:30:00,
2013-08-23 00:40:00,67.4,61.0,29.75,SSW,205,2.0,3.0,80,0.00,,,0.00,Wunderground v.1.15,2013-08-23 04:40:00,
2013-08-23 00:50:00,67.4,61.0,29.74,SSW,211,1.0,1.0,80,0.00,,,0.00,Wunderground v.1.15,2013-08-23 04:50:00,
2013-08-23 00:55:00,67.4,61.0,29.74,South,187,1.0,2.0,80,0.00,,,0.00,Wunderground v.1.15,2013-08-23 04:55:00,
2013-08-23 01:00:00,67.3,60.9,29.74,SW,222,1.0,1.0,80,0.00,,,0.00,Wunderground v.1.15,2013-08-23 05:00:00,
2013-08-23 01:10:00,67.3,60.9,29.74,SSW,203,1.0,1.0,80,0.00,,,0.00,Wunderground v.1.15,2013-08-23 05:10:00,
2013-08-23 01:15:00,67.3,60.6,29.74,SSW,202,0.0,1.0,79,0.00,,,0.00,Wunderground v.1.15,2013-08-23 05:15:00,
2013-08-23 01:20:00,67.3,60.9,29.74,SW,223,0.0,0.0,80,0.00,,,0.00,Wunderground v.1.15,2013-08-23 05:20:00,
2013-08-23 01:25:00,67.4,61.0,29.74,SW,219,0.0,0.0,80,0.00,,,0.00,Wunderground v.1.15,2013-08-23 05:25:00,
2013-08-23 01:35:00,67.5,61.1,29.74,SW,234,0.0,1.0,80,0.00,,,0.00,Wunderground v.1.15,2013-08-23 05:35:00,
2013-08-23 01:40:00,67.5,61.1,29.74,West,260,0.0,0.0,80,0.00,,,0.00,Wunderground v.1.15,2013-08-23 05:40:00,
2013-08-23 01:45:00,67.6,61.2,29.74,West,275,0.0,0.0,80,0.00,,,0.00,Wunderground v.1.15,2013-08-23 05:45:00,
2013-08-23 01:55:00,67.7,61.3,29.74,West,259,0.0,0.0,80,0.00,,,0.00,Wunderground v.1.15,2013-08-23 05:55:00,
2013-08-23 02:05:00,67.7,61.7,29.75,WSW,248,0.0,0.0,81,0.00,,,0.00,Wunderground v.1.15,2013-08-23 06:05:00,
2013-08-23 02:10:00,67.7,61.3,29.75,West,261,0.0,0.0,80,0.00,,,0.00,Wunderground v.1.15,2013-08-23 06:10:00,
2013-08-23 02:20:00,67.8,61.4,29.75,West,279,0.0,1.0,80,0.00,,,0.00,Wunderground v.1.15,2013-08-23 06:20:00,
2013-08-23 02:25:00,67.7,61.7,29.76,NW,323,0.0,1.0,81,0.00,,,0.00,Wunderground v.1.15,2013-08-23 06:25:00,
2013-08-23 02:30:00,67.8,61.0,29.75,NW,323,0.0,0.0,79,0.00,,,0.00,Wunderground v.1.15,2013-08-23 06:30:00,
2013-08-23 02:40:00,67.7,61.3,29.76,NW,323,0.0,0.0,80,0.00,,,0.00,Wunderground v.1.15,2013-08-23 06:40:00,
2013-08-23 02:50:00,67.7,59.9,29.76,NW,323,0.0,0.0,76,0.00,,,0.00,Wunderground v.1.15,2013-08-23 06:50:00,
2013-08-23 02:55:00,67.8,60.3,29.76,West,275,0.0,0.0,77,0.00,,,0.00,Wunderground v.1.15,2013-08-23 06:55:00,
2013-08-23 03:00:00,67.8,61.0,29.76,NW,304,0.0,0.0,79,0.00,,,0.00,Wunderground v.1.15,2013-08-23 07:00:00,
2013-08-23 03:10:00,68.0,63.0,29.76,WNW,290,1.0,2.0,84,0.00,,,0.00,Wunderground v.1.15,2013-08-23 07:10:00,
2013-08-23 03:15:00,68.7,65.0,29.76,WNW,302,3.0,4.0,88,0.00,,,0.00,Wunderground v.1.15,2013-08-23 07:15:00,
2013-08-23 03:25:00,69.7,64.6,29.77,WNW,300,5.0,5.0,84,0.00,,,0.00,Wunderground v.1.15,2013-08-23 07:25:00,
2013-08-23 03:35:00,69.9,63.8,29.76,West,268,7.0,7.0,81,0.00,,,0.00,Wunderground v.1.15,2013-08-23 07:35:00,
2013-08-23 03:40:00,69.8,63.7,29.76,WNW,295,6.0,6.0,81,0.00,,,0.00,Wunderground v.1.15,2013-08-23 07:40:00,
2013-08-23 03:45:00,69.7,63.6,29.77,West,277,6.0,7.0,81,0.00,,,0.00,Wunderground v.1.15,2013-08-23 07:45:00,
2013-08-23 03:55:00,69.4,63.7,29.76,WNW,296,4.0,5.0,82,0.00,,,0.00,Wunderground v.1.15,2013-08-23 07:55:00,
2013-08-23 04:05:00,69.1,63.7,29.77,WNW,285,2.0,3.0,83,0.00,,,0.00,Wunderground v.1.15,2013-08-23 08:05:00,
2013-08-23 04:10:00,68.8,63.4,29.77,WNW,291,2.0,2.0,83,0.00,,,0.00,Wunderground v.1.15,2013-08-23 08:10:00,
2013-08-23 04:20:00,68.5,63.1,29.77,NW,319,3.0,3.0,83,0.00,,,0.00,Wunderground v.1.15,2013-08-23 08:20:00,
2013-08-23 04:30:00,68.4,63.4,29.78,WNW,298,2.0,2.0,84,0.00,,,0.00,Wunderground v.1.15,2013-08-23 08:30:00,
2013-08-23 04:40:00,68.0,63.0,29.78,WNW,291,0.0,1.0,84,0.00,,,0.00,Wunderground v.1.15,2013-08-23 08:40:00,
2013-08-23 04:50:00,67.6,62.9,29.78,WNW,290,1.0,1.0,85,0.00,,,0.00,Wunderground v.1.15,2013-08-23 08:50:00,
2013-08-23 04:55:00,67.3,62.6,29.78,WNW,300,1.0,5.0,85,0.00,,,0.00,Wunderground v.1.15,2013-08-23 08:55:00,
2013-08-23 05:00:00,67.1,62.4,29.79,WNW,288,2.0,2.0,85,0.00,,,0.00,Wunderground v.1.15,2013-08-23 09:00:00,
2013-08-23 05:10:00,67.0,62.3,29.79,WNW,296,3.0,3.0,85,0.00,,,0.00,Wunderground v.1.15,2013-08-23 09:10:00,
2013-08-23 05:20:00,66.7,62.4,29.79,WNW,292,3.0,7.0,86,0.00,,,0.00,Wunderground v.1.15,2013-08-23 09:20:00,
2013-08-23 05:25:00,66.7,62.4,29.80,WNW,291,4.0,7.0,86,0.00,,,0.00,Wunderground v.1.15,2013-08-23 09:25:00,
2013-08-23 05:35:00,66.4,62.1,29.80,West,267,5.0,5.0,86,0.00,,,0.00,Wunderground v.1.15,2013-08-23 09:35:00,
2013-08-23 05:40:00,66.2,61.9,29.80,WNW,296,5.0,6.0,86,0.00,,,0.00,Wunderground v.1.15,2013-08-23 09:40:00,
2013-08-23 05:45:00,66.1,62.1,29.80,NW,307,5.0,6.0,87,0.00,,,0.00,Wunderground v.1.15,2013-08-23 09:45:00,
2013-08-23 05:55:00,65.9,61.9,29.81,NW,325,5.0,5.0,87,0.00,,,0.00,Wunderground v.1.15,2013-08-23 09:55:00,
2013-08-23 06:05:00,65.8,62.1,29.81,West,266,5.0,5.0,88,0.00,,,0.00,Wunderground v.1.15,2013-08-23 10:05:00,
2013-08-23 06:10:00,65.6,61.9,29.81,NW,323,5.0,5.0,88,0.00,,,0.00,Wunderground v.1.15,2013-08-23 10:10:00,
2013-08-23 06:20:00,65.6,61.9,29.81,West,267,6.0,10.0,88,0.00,,,0.00,Wunderground v.1.15,2013-08-23 10:20:00,
2013-08-23 06:25:00,65.6,61.9,29.82,West,280,6.0,12.0,88,0.00,,,0.00,Wunderground v.1.15,2013-08-23 10:25:00,
2013-08-23 06:35:00,65.4,61.4,29.83,West,276,6.0,7.0,87,0.00,,,0.00,Wunderground v.1.15,2013-08-23 10:35:00,
2013-08-23 06:40:00,65.2,61.2,29.82,WNW,286,6.0,7.0,87,0.00,,,0.00,Wunderground v.1.15,2013-08-23 10:40:00,
2013-08-23 06:50:00,65.4,61.1,29.83,WNW,283,7.0,7.0,86,0.00,,,0.00,Wunderground v.1.15,2013-08-23 10:50:00,
2013-08-23 06:55:00,65.3,61.0,29.84,NW,307,7.0,7.0,86,0.00,,,0.00,Wunderground v.1.15,2013-08-23 10:55:00,
2013-08-23 07:00:00,65.2,60.9,29.84,WNW,294,6.0,8.0,86,0.00,,,0.00,Wunderground v.1.15,2013-08-23 11:00:00,
2013-08-23 07:10:00,65.2,60.2,29.85,WNW,294,7.0,7.0,84,0.00,,,0.00,Wunderground v.1.15,2013-08-23 11:10:00,
2013-08-23 07:15:00,65.1,60.1,29.85,West,280,8.0,12.0,84,0.00,,,0.00,Wunderground v.1.15,2013-08-23 11:15:00,
2013-08-23 07:25:00,64.9,59.6,29.85,WNW,282,8.0,14.0,83,0.00,,,0.00,Wunderground v.1.15,2013-08-23 11:25:00,
2013-08-23 07:35:00,64.7,59.1,29.85,WNW,298,9.0,9.0,82,0.00,,,0.00,Wunderground v.1.15,2013-08-23 11:35:00,
2013-08-23 07:40:00,64.7,58.7,29.86,WNW,294,8.0,8.0,81,0.00,,,0.00,Wunderground v.1.15,2013-08-23 11:40:00,
2013-08-23 07:45:00,64.7,58.7,29.86,WNW,300,9.0,11.0,81,0.00,,,0.00,Wunderground v.1.15,2013-08-23 11:45:00,
2013-08-23 07:55:00,64.8,58.5,29.86,WNW,288,9.0,11.0,80,0.00,,,0.00,Wunderground v.1.15,2013-08-23 11:55:00,
2013-08-23 08:05:00,65.2,58.2,29.86,WNW,300,10.0,14.0,78,0.00,,,0.00,Wunderground v.1.15,2013-08-23 12:05:00,
2013-08-23 08:10:00,65.6,58.6,29.86,WNW,288,11.0,11.0,78,0.00,,,0.00,Wunderground v.1.15,2013-08-23 12:10:00,
2013-08-23 08:20:00,65.6,58.2,29.87,WNW,294,12.0,14.0,77,0.00,,,0.00,Wunderground v.1.15,2013-08-23 12:20:00,
2013-08-23 08:25:00,65.6,58.2,29.88,NW,317,13.0,14.0,77,0.00,,,0.00,Wunderground v.1.15,2013-08-23 12:25:00,
2013-08-23 08:30:00,65.6,58.2,29.87,WNW,302,12.0,12.0,77,0.00,,,0.00,Wunderground v.1.15,2013-08-23 12:30:00,
2013-08-23 08:35:00,65.5,58.1,29.87,NW,309,13.0,13.0,77,0.00,,,0.00,Wunderground v.1.15,2013-08-23 12:35:00,
2013-08-23 08:40:00,65.4,58.4,29.88,NW,314,12.0,12.0,78,0.00,,,0.00,Wunderground v.1.15,2013-08-23 12:40:00,
2013-08-23 08:50:00,65.7,58.7,29.88,West,275,6.0,6.0,78,0.00,,,0.00,Wunderground v.1.15,2013-08-23 12:50:00,
2013-08-23 08:55:00,65.9,58.5,29.88,WNW,283,6.0,6.0,77,0.00,,,0.00,Wunderground v.1.15,2013-08-23 12:55:00,
2013-08-23 09:00:00,66.2,58.4,29.88,West,279,4.0,7.0,76,0.00,,,0.00,Wunderground v.1.15,2013-08-23 13:00:00,
2013-08-23 09:10:00,66.7,58.5,29.89,WNW,291,8.0,12.0,75,0.00,,,0.00,Wunderground v.1.15,2013-08-23 13:10:00,
2013-08-23 09:20:00,67.2,58.6,29.89,WNW,297,10.0,10.0,74,0.00,,,0.00,Wunderground v.1.15,2013-08-23 13:20:00,
2013-08-23 09:25:00,67.3,58.3,29.89,WNW,286,8.0,16.0,73,0.00,,,0.00,Wunderground v.1.15,2013-08-23 13:25:00,
2013-08-23 09:35:00,67.5,58.2,29.90,NW,304,13.0,18.0,72,0.00,,,0.00,Wunderground v.1.15,2013-08-23 13:35:00,
2013-08-23 09:40:00,67.6,59.0,29.89,WNW,288,9.0,9.0,74,0.00,,,0.00,Wunderground v.1.15,2013-08-23 13:40:00,
2013-08-23 09:45:00,67.7,59.1,29.90,WNW,294,7.0,9.0,74,0.00,,,0.00,Wunderground v.1.15,2013-08-23 13:45:00,
2013-08-23 09:50:00,68.0,59.0,29.90,WNW,296,7.0,9.0,73,0.00,,,0.00,Wunderground v.1.15,2013-08-23 13:50:00,
2013-08-23 09:55:00,68.3,58.9,29.90,NW,325,8.0,9.0,72,0.00,,,0.00,Wunderground v.1.15,2013-08-23 13:55:00,
2013-08-23 10:05:00,68.9,59.1,29.90,West,280,8.0,12.0,71,0.00,,,0.00,Wunderground v.1.15,2013-08-23 14:05:00,
2013-08-23 10:15:00,68.7,58.5,29.91,WNW,300,9.0,13.0,70,0.00,,,0.00,Wunderground v.1.15,2013-08-23 14:15:00,
2013-08-23 10:20:00,68.9,57.9,29.91,WNW,294,10.0,15.0,68,0.00,,,0.00,Wunderground v.1.15,2013-08-23 14:20:00,
2013-08-23 10:25:00,68.8,58.2,29.91,WNW,302,10.0,15.0,69,0.00,,,0.00,Wunderground v.1.15,2013-08-23 14:25:00,
2013-08-23 10:30:00,68.8,58.2,29.91,West,280,10.0,10.0,69,0.00,,,0.00,Wunderground v.1.15,2013-08-23 14:30:00,
2013-08-23 10:40:00,69.4,58.4,29.91,WNW,285,8.0,8.0,68,0.00,,,0.00,Wunderground v.1.15,2013-08-23 14:40:00,
2013-08-23 10:50:00,69.7,58.7,29.91,WNW,286,9.0,9.0,68,0.00,,,0.00,Wunderground v.1.15,2013-08-23 14:50:00,
2013-08-23 10:55:00,69.7,58.3,29.91,NW,308,9.0,9.0,67,0.00,,,0.00,Wunderground v.1.15,2013-08-23 14:55:00,
2013-08-23 11:00:00,69.8,58.8,29.92,NW,311,10.0,10.0,68,0.00,,,0.00,Wunderground v.1.15,2013-08-23 15:00:00,
2013-08-23 11:05:00,69.9,58.9,29.92,WNW,294,9.0,10.0,68,0.00,,,0.00,Wunderground v.1.15,2013-08-23 15:05:00,
2013-08-23 11:15:00,70.2,58.7,29.92,NW,321,7.0,8.0,67,0.00,,,0.00,Wunderground v.1.15,2013-08-23 15:15:00,
2013-08-23 11:25:00,70.6,59.1,29.92,WNW,283,4.0,8.0,67,0.00,,,0.00,Wunderground v.1.15,2013-08-23 15:25:00,
2013-08-23 11:35:00,70.8,59.7,29.92,NW,317,5.0,7.0,68,0.00,,,0.00,Wunderground v.1.15,2013-08-23 15:35:00,
2013-08-23 11:40:00,70.8,59.3,29.92,WNW,290,5.0,9.0,67,0.00,,,0.00,Wunderground v.1.15,2013-08-23 15:40:00,
2013-08-23 11:50:00,71.1,58.7,29.93,WNW,291,5.0,5.0,65,0.00,,,0.00,Wunderground v.1.15,2013-08-23 15:50:00,
2013-08-23 11:55:00,71.2,59.3,29.92,West,280,3.0,5.0,66,0.00,,,0.00,Wunderground v.1.15,2013-08-23 15:55:00,
2013-08-23 12:05:00,71.6,57.9,29.92,NW,314,6.0,9.0,62,0.00,,,0.00,Wunderground v.1.15,2013-08-23 16:05:00,
2013-08-23 12:10:00,71.6,58.3,29.92,WNW,297,6.0,8.0,63,0.00,,,0.00,Wunderground v.1.15,2013-08-23 16:10:00,
2013-08-23 12:20:00,72.7,58.5,29.92,NW,323,6.0,14.0,61,0.00,,,0.00,Wunderground v.1.15,2013-08-23 16:20:00,
2013-08-23 12:25:00,72.6,57.9,29.92,WNW,303,9.0,14.0,60,0.00,,,0.00,Wunderground v.1.15,2013-08-23 16:25:00,
2013-08-23 12:30:00,72.9,59.1,29.92,NW,306,8.0,12.0,62,0.00,,,0.00,Wunderground v.1.15,2013-08-23 16:30:00,
2013-08-23 12:40:00,73.3,59.0,29.91,WNW,298,7.0,7.0,61,0.00,,,0.00,Wunderground v.1.15,2013-08-23 16:40:00,
2013-08-23 12:50:00,74.1,58.4,29.92,WNW,288,7.0,8.0,58,0.00,,,0.00,Wunderground v.1.15,2013-08-23 16:50:00,
2013-08-23 12:55:00,74.4,58.7,29.91,WNW,300,8.0,17.0,58,0.00,,,0.00,Wunderground v.1.15,2013-08-23 16:55:00,
2013-08-23 13:00:00,73.8,57.6,29.92,WNW,286,11.0,12.0,57,0.00,,,0.00,Wunderground v.1.15,2013-08-23 17:00:00,
2013-08-23 13:10:00,74.0,57.8,29.92,NW,317,9.0,9.0,57,0.00,,,0.00,Wunderground v.1.15,2013-08-23 17:10:00,
2013-08-23 13:20:00,74.5,59.2,29.92,WNW,300,9.0,9.0,59,0.00,,,0.00,Wunderground v.1.15,2013-08-23 17:20:00,
2013-08-23 13:25:00,74.5,57.3,29.92,WNW,288,11.0,11.0,55,0.00,,,0.00,Wunderground v.1.15,2013-08-23 17:25:00,
2013-08-23 13:35:00,74.2,57.5,29.92,WNW,303,10.0,22.0,56,0.00,,,0.00,Wunderground v.1.15,2013-08-23 17:35:00,
2013-08-23 13:40:00,74.4,56.7,29.92,West,265,10.0,10.0,54,0.00,,,0.00,Wunderground v.1.15,2013-08-23 17:40:00,
2013-08-23 13:45:00,74.5,57.3,29.92,WNW,296,9.0,10.0,55,0.00,,,0.00,Wunderground v.1.15,2013-08-23 17:45:00,
2013-08-23 13:55:00,74.8,56.5,29.92,WNW,303,8.0,12.0,53,0.00,,,0.00,Wunderground v.1.15,2013-08-23 17:55:00,
2013-08-23 14:05:00,75.1,56.8,29.92,WNW,298,8.0,8.0,53,0.00,,,0.00,Wunderground v.1.15,2013-08-23 18:05:00,
2013-08-23 14:10:00,75.2,55.3,29.92,WNW,285,9.0,9.0,50,0.00,,,0.00,Wunderground v.1.15,2013-08-23 18:10:00,
2013-08-23 14:15:00,75.5,55.6,29.92,WNW,288,9.0,9.0,50,0.00,,,0.00,Wunderground v.1.15,2013-08-23 18:15:00,
2013-08-23 14:25:00,75.5,55.0,29.92,NE,41,10.0,11.0,49,0.00,,,0.00,Wunderground v.1.15,2013-08-23 18:25:00,
2013-08-23 14:30:00,75.4,53.8,29.92,NNW,329,9.0,9.0,47,0.00,,,0.00,Wunderground v.1.15,2013-08-23 18:30:00,
2013-08-23 14:40:00,75.4,54.3,29.92,WSW,248,8.0,8.0,48,0.00,,,0.00,Wunderground v.1.15,2013-08-23 18:40:00,
2013-08-23 14:45:00,75.5,54.4,29.92,WNW,287,9.0,9.0,48,0.00,,,0.00,Wunderground v.1.15,2013-08-23 18:45:00,
2013-08-23 14:50:00,75.8,55.3,29.93,WNW,295,9.0,9.0,49,0.00,,,0.00,Wunderground v.1.15,2013-08-23 18:50:00,
2013-08-23 15:00:00,75.2,53.6,29.93,WNW,288,12.0,12.0,47,0.00,,,0.00,Wunderground v.1.15,2013-08-23 19:00:00,
2013-08-23 15:10:00,74.7,54.3,29.93,WNW,294,12.0,12.0,49,0.00,,,0.00,Wunderground v.1.15,2013-08-23 19:10:00,
2013-08-23 15:20:00,75.3,53.7,29.93,NW,310,8.0,8.0,47,0.00,,,0.00,Wunderground v.1.15,2013-08-23 19:20:00,
2013-08-23 15:30:00,75.9,54.2,29.93,WSW,237,7.0,10.0,47,0.00,,,0.00,Wunderground v.1.15,2013-08-23 19:30:00,
2013-08-23 15:35:00,76.2,52.1,29.93,West,269,8.0,10.0,43,0.00,,,0.00,Wunderground v.1.15,2013-08-23 19:35:00,
2013-08-23 15:40:00,75.8,51.1,29.93,WNW,285,11.0,11.0,42,0.00,,,0.00,Wunderground v.1.15,2013-08-23 19:40:00,
2013-08-23 15:45:00,75.6,52.1,29.93,NW,311,11.0,11.0,44,0.00,,,0.00,Wunderground v.1.15,2013-08-23 19:45:00,
2013-08-23 15:55:00,75.0,51.6,29.93,NW,307,10.0,11.0,44,0.00,,,0.00,Wunderground v.1.15,2013-08-23 19:55:00,
2013-08-23 16:00:00,75.0,51.6,29.93,WNW,294,11.0,11.0,44,0.00,,,0.00,Wunderground v.1.15,2013-08-23 20:00:00,
2013-08-23 16:05:00,75.3,52.5,29.94,WNW,286,10.0,14.0,45,0.00,,,0.00,Wunderground v.1.15,2013-08-23 20:05:00,
2013-08-23 16:10:00,75.1,51.7,29.94,WNW,296,10.0,10.0,44,0.00,,,0.00,Wunderground v.1.15,2013-08-23 20:10:00,
2013-08-23 16:15:00,75.1,51.7,29.94,WNW,290,10.0,15.0,44,0.00,,,0.00,Wunderground v.1.15,2013-08-23 20:15:00,
2013-08-23 16:25:00,75.0,51.6,29.94,WNW,294,9.0,20.0,44,0.00,,,0.00,Wunderground v.1.15,2013-08-23 20:25:00,
2013-08-23 16:35:00,75.3,53.1,29.94,West,277,9.0,10.0,46,0.00,,,0.00,Wunderground v.1.15,2013-08-23 20:35:00,
2013-08-23 16:45:00,75.4,53.2,29.95,WNW,295,8.0,9.0,46,0.00,,,0.00,Wunderground v.1.15,2013-08-23 20:45:00,
2013-08-23 16:50:00,75.3,54.3,29.95,WNW,298,8.0,8.0,48,0.00,,,0.00,Wunderground v.1.15,2013-08-23 20:50:00,
2013-08-23 16:55:00,75.3,53.7,29.95,WNW,300,7.0,11.0,47,0.00,,,0.00,Wunderground v.1.15,2013-08-23 20:55:00,
2013-08-23 17:05:00,74.8,53.2,29.95,West,280,11.0,11.0,47,0.00,,,0.00,Wunderground v.1.15,2013-08-23 21:05:00,
2013-08-23 17:10:00,74.4,53.4,29.95,WNW,293,10.0,19.0,48,0.00,,,0.00,Wunderground v.1.15,2013-08-23 21:10:00,
2013-08-23 17:20:00,74.1,54.8,29.96,West,278,10.0,10.0,51,0.00,,,0.00,Wunderground v.1.15,2013-08-23 21:20:00,
2013-08-23 17:25:00,74.0,53.6,29.96,WNW,286,9.0,16.0,49,0.00,,,0.00,Wunderground v.1.15,2013-08-23 21:25:00,
2013-08-23 17:35:00,73.9,53.5,29.96,WNW,282,8.0,9.0,49,0.00,,,0.00,Wunderground v.1.15,2013-08-23 21:35:00,
2013-08-23 17:45:00,73.8,54.0,29.97,WNW,282,8.0,16.0,50,0.00,,,0.00,Wunderground v.1.15,2013-08-23 21:45:00,
2013-08-23 17:50:00,73.7,53.3,29.97,NW,318,8.0,8.0,49,0.00,,,0.00,Wunderground v.1.15,2013-08-23 21:50:00,
2013-08-23 17:55:00,73.5,53.2,29.97,WNW,296,9.0,11.0,49,0.00,,,0.00,Wunderground v.1.15,2013-08-23 21:55:00,
2013-08-23 18:05:00,73.8,53.4,29.97,WNW,288,9.0,9.0,49,0.00,,,0.00,Wunderground v.1.15,2013-08-23 22:05:00,
2013-08-23 18:10:00,73.7,53.3,29.98,WNW,290,8.0,8.0,49,0.00,,,0.00,Wunderground v.1.15,2013-08-23 22:10:00,
2013-08-23 18:15:00,73.5,54.3,29.98,NW,305,8.0,8.0,51,0.00,,,0.00,Wunderground v.1.15,2013-08-23 22:15:00,
2013-08-23 18:25:00,73.2,54.0,29.98,NW,323,7.0,11.0,51,0.00,,,0.00,Wunderground v.1.15,2013-08-23 22:25:00,
2013-08-23 18:30:00,73.0,54.3,29.99,NNW,340,7.0,7.0,52,0.00,,,0.00,Wunderground v.1.15,2013-08-23 22:30:00,
2013-08-23 18:40:00,72.7,54.1,29.99,West,275,7.0,7.0,52,0.00,,,0.00,Wunderground v.1.15,2013-08-23 22:40:00,
2013-08-23 18:50:00,72.4,54.8,30.00,WNW,303,6.0,6.0,54,0.00,,,0.00,Wunderground v.1.15,2013-08-23 22:50:00,
2013-08-23 18:55:00,72.1,54.5,30.00,WNW,291,4.0,6.0,54,0.00,,,0.00,Wunderground v.1.15,2013-08-23 22:55:00,
2013-08-23 19:00:00,71.9,54.9,30.00,NNW,327,3.0,5.0,55,0.00,,,0.00,Wunderground v.1.15,2013-08-23 23:00:00,
2013-08-23 19:10:00,71.4,54.9,30.00,NW,309,4.0,4.0,56,0.00,,,0.00,Wunderground v.1.15,2013-08-23 23:10:00,
2013-08-23 19:20:00,70.2,54.7,30.01,WNW,290,3.0,3.0,58,0.00,,,0.00,Wunderground v.1.15,2013-08-23 23:20:00,
2013-08-23 19:25:00,69.7,54.7,30.01,WNW,302,2.0,3.0,59,0.00,,,0.00,Wunderground v.1.15,2013-08-23 23:25:00,
2013-08-23 19:35:00,68.6,54.6,30.01,WNW,295,1.0,2.0,61,0.00,,,0.00,Wunderground v.1.15,2013-08-23 23:35:00,
2013-08-23 19:45:00,67.5,55.3,30.02,WNW,283,2.0,2.0,65,0.00,,,0.00,Wunderground v.1.15,2013-08-23 23:45:00,
2013-08-23 19:55:00,66.7,55.0,30.02,West,281,1.0,2.0,66,0.00,,,0.00,Wunderground v.1.15,2013-08-23 23:55:00,
2013-08-23 20:05:00,66.2,54.9,30.03,WNW,292,3.0,4.0,67,0.00,,,0.00,Wunderground v.1.15,2013-08-24 00:05:00,
2013-08-23 20:15:00,66.0,55.1,30.04,WNW,288,4.0,5.0,68,0.00,,,0.00,Wunderground v.1.15,2013-08-24 00:15:00,
2013-08-23 20:25:00,65.9,55.0,30.04,WNW,294,5.0,7.0,68,0.00,,,0.00,Wunderground v.1.15,2013-08-24 00:25:00,
2013-08-23 20:30:00,65.9,55.0,30.04,WNW,294,4.0,4.0,68,0.00,,,0.00,Wunderground v.1.15,2013-08-24 00:30:00,
2013-08-23 20:35:00,65.6,55.2,30.05,WNW,282,3.0,4.0,69,0.00,,,0.00,Wunderground v.1.15,2013-08-24 00:35:00,
2013-08-23 20:45:00,64.9,55.3,30.05,WNW,283,4.0,6.0,71,0.00,,,0.00,Wunderground v.1.15,2013-08-24 00:45:00,
2013-08-23 20:50:00,64.6,55.4,30.05,WNW,288,5.0,5.0,72,0.00,,,0.00,Wunderground v.1.15,2013-08-24 00:50:00,
2013-08-23 20:55:00,64.4,55.2,30.06,WNW,296,5.0,5.0,72,0.00,,,0.00,Wunderground v.1.15,2013-08-24 00:55:00,
2013-08-23 21:00:00,64.0,55.2,30.06,WNW,302,4.0,4.0,73,0.00,,,0.00,Wunderground v.1.15,2013-08-24 01:00:00,
2013-08-23 21:10:00,63.7,54.9,30.06,WNW,295,5.0,6.0,73,0.00,,,0.00,Wunderground v.1.15,2013-08-24 01:10:00,
2013-08-23 21:20:00,63.5,54.7,30.07,WNW,286,5.0,5.0,73,0.00,,,0.00,Wunderground v.1.15,2013-08-24 01:20:00,
2013-08-23 21:25:00,63.3,54.9,30.07,WNW,300,6.0,9.0,74,0.00,,,0.00,Wunderground v.1.15,2013-08-24 01:25:00,
2013-08-23 21:35:00,63.3,54.9,30.07,WNW,291,6.0,7.0,74,0.00,,,0.00,Wunderground v.1.15,2013-08-24 01:35:00,
2013-08-23 21:40:00,63.2,55.5,30.07,WNW,288,6.0,6.0,76,0.00,,,0.00,Wunderground v.1.15,2013-08-24 01:40:00,
2013-08-23 21:45:00,62.7,55.7,30.07,WNW,296,5.0,6.0,78,0.00,,,0.00,Wunderground v.1.15,2013-08-24 01:45:00,
2013-08-23 21:55:00,62.4,55.1,30.07,West,276,6.0,6.0,77,0.00,,,0.00,Wunderground v.1.15,2013-08-24 01:55:00,
2013-08-23 22:05:00,62.2,54.9,30.07,WNW,302,6.0,6.0,77,0.00,,,0.00,Wunderground v.1.15,2013-08-24 02:05:00,
2013-08-23 22:10:00,62.0,54.3,30.07,WNW,282,5.0,5.0,76,0.00,,,0.00,Wunderground v.1.15,2013-08-24 02:10:00,
2013-08-23 22:20:00,61.8,53.8,30.08,WNW,294,4.0,4.0,75,0.00,,,0.00,Wunderground v.1.15,2013-08-24 02:20:00,
2013-08-23 22:25:00,61.6,54.0,30.08,WNW,286,3.0,4.0,76,0.00,,,0.00,Wunderground v.1.15,2013-08-24 02:25:00,
2013-08-23 22:30:00,61.2,53.6,30.08,West,281,2.0,2.0,76,0.00,,,0.00,Wunderground v.1.15,2013-08-24 02:30:00,
2013-08-23 22:40:00,60.6,53.7,30.09,WNW,286,2.0,2.0,78,0.00,,,0.00,Wunderground v.1.15,2013-08-24 02:40:00,
2013-08-23 22:50:00,60.4,53.2,30.09,WNW,290,3.0,5.0,77,0.00,,,0.00,Wunderground v.1.15,2013-08-24 02:50:00,
2013-08-23 22:55:00,60.5,53.3,30.09,WNW,294,4.0,5.0,77,0.00,,,0.00,Wunderground v.1.15,2013-08-24 02:55:00,
2013-08-23 23:00:00,60.5,52.9,30.09,WNW,295,5.0,5.0,76,0.00,,,0.00,Wunderground v.1.15,2013-08-24 03:00:00,
2013-08-23 23:10:00,60.9,52.6,30.10,WNW,288,6.0,6.0,74,0.00,,,0.00,Wunderground v.1.15,2013-08-24 03:10:00,
2013-08-23 23:20:00,61.1,52.7,30.10,WNW,298,6.0,7.0,74,0.00,,,0.00,Wunderground v.1.15,2013-08-24 03:20:00,
2013-08-23 23:25:00,61.2,52.5,30.10,WNW,300,6.0,7.0,73,0.00,,,0.00,Wunderground v.1.15,2013-08-24 03:25:00,
2013-08-23 23:35:00,60.9,52.6,30.11,WNW,291,7.0,7.0,74,0.00,,,0.00,Wunderground v.1.15,2013-08-24 03:35:00,
2013-08-23 23:40:00,60.5,52.5,30.11,WNW,286,6.0,6.0,75,0.00,,,0.00,Wunderground v.1.15,2013-08-24 03:40:00,
2013-08-23 23:45:00,60.3,52.3,30.11,WNW,288,6.0,8.0,75,0.00,,,0.00,Wunderground v.1.15,2013-08-24 03:45:00,
2013-08-23 23:55:00,60.3,52.0,30.11,WNW,296,7.0,8.0,74,0.00,,,0.00,Wunderground v.1.15,2013-08-24 03:55:00,